GFSFLT1_sfc_wetblb_159.txt.gz
Wetbulb
61.54 62.46 64.07 65.16 64.83 65.42 65.53 65.65 68.00 68.93 69.08 68.02 68.78 69.38 68.92 69.24 69.14 69.10 67.86 68.73 69.14 68.93 68.77 69.64 69.04 70.08 71.23 70.38 70.67 70.87 70.86 70.54 70.71
60.43 62.06 63.61 64.66 65.41 66.17 67.34 66.87 67.52 68.20 68.32 68.71 68.91 69.60 69.18 69.00 68.96 69.37 68.37 69.11 68.74 68.57 68.48 68.75 69.68 72.36 71.77 70.60 70.55 71.35 70.66 69.99 69.55
60.55 61.48 63.00 64.44 65.43 66.00 67.04 67.97 67.74 68.99 69.02 68.44 69.34 69.67 69.62 68.97 68.72 69.44 69.46 69.30 69.24 68.01 67.73 68.13 69.55 69.54 69.11 69.10 70.64 72.57 72.24 70.05 69.67
62.04 60.70 62.33 63.66 65.65 66.45 67.13 67.91 69.08 69.38 69.92 68.65 69.56 69.01 69.40 69.26 68.72 68.79 69.63 69.02 68.70 68.88 69.11 68.85 68.91 69.34 68.80 70.52 70.72 71.90 71.05 69.96 70.27
63.15 60.67 62.62 63.87 65.69 65.96 65.88 66.27 68.75 69.42 70.08 69.34 69.80 68.75 68.83 69.63 69.67 69.20 68.94 69.30 68.97 68.83 68.48 69.84 69.34 70.63 69.72 70.44 70.49 70.56 69.62 69.76 70.90
62.62 62.22 64.58 64.96 65.74 65.78 65.93 65.70 67.34 68.45 68.99 67.27 68.02 68.60 68.72 68.83 68.85 68.72 69.14 69.34 69.30 69.60 68.74 69.87 69.78 69.80 70.23 69.99 70.30 70.23 70.19 70.10 69.76
62.37 63.73 64.19 64.44 65.18 66.29 65.16 65.03 64.72 66.75 67.70 67.86 68.26 68.42 67.88 68.09 68.24 68.69 69.12 69.57 69.47 69.18 69.90 69.58 69.74 70.50 70.47 69.73 70.31 70.43 70.00 69.82 69.74
61.90 63.69 64.15 63.79 64.61 65.08 65.42 65.19 64.83 65.90 65.97 66.71 68.06 67.93 67.59 66.17 65.94 65.58 66.22 67.77 68.83 69.57 70.02 69.77 69.61 68.89 68.87 68.85 67.79 67.32 66.11 67.90 68.80
59.81 61.32 63.15 64.70 64.67 65.29 65.15 65.76 64.57 65.70 65.38 65.41 67.16 66.76 66.02 67.99 66.73 66.71 65.66 66.91 67.47 68.20 68.67 68.72 68.69 68.49 66.37 64.38 64.31 62.31 63.42 65.01 67.79
59.05 60.87 62.31 63.51 64.77 64.63 65.54 65.68 65.37 65.04 65.65 65.74 65.97 66.37 66.18 67.25 67.18 65.90 65.30 67.32 67.34 67.22 66.66 67.68 66.57 65.28 64.18 62.53 61.90 60.99 61.39 64.01 67.57
60.89 62.03 62.92 64.10 64.63 64.99 65.88 66.47 66.35 65.68 65.22 65.33 65.53 66.95 67.03 66.82 66.64 65.41 65.68 66.85 67.25 66.61 66.64 67.02 65.39 63.74 62.75 61.09 59.78 58.25 59.29 61.73 67.86
62.26 63.30 64.22 64.33 64.81 65.19 65.21 66.16 66.55 65.87 64.70 66.21 66.68 66.66 66.33 66.45 66.39 65.53 65.53 65.99 67.22 66.72 65.21 64.69 64.33 63.92 62.03 60.44 59.19 56.95 58.01 61.90 66.04
62.72 63.87 63.56 63.12 63.73 64.02 63.93 64.26 66.53 66.08 65.59 65.87 65.54 65.90 66.25 67.40 66.68 66.64 66.68 67.00 65.78 64.73 63.22 61.05 60.08 58.84 58.89 57.69 58.49 56.48 56.10 59.50 64.97
62.42 62.88 62.30 62.12 62.37 61.55 62.36 63.71 64.54 64.94 65.39 63.40 64.53 65.35 65.53 65.37 65.55 64.83 64.83 64.12 63.76 62.66 61.19 59.19 57.97 56.85 56.56 55.76 54.40 55.42 53.78 56.26 64.36
61.63 61.32 61.86 62.00 60.84 60.62 61.67 62.65 63.09 61.99 61.55 63.08 63.94 63.92 63.89 64.25 64.24 64.41 63.87 62.86 62.05 61.09 60.43 58.65 57.22 55.29 54.42 54.40 53.76 53.40 53.06 53.70 55.98
60.42 61.57 61.44 61.80 60.67 60.36 60.87 61.88 62.43 61.28 61.67 62.76 62.90 62.81 62.24 61.92 61.15 61.68 62.30 62.37 61.25 59.80 59.14 57.99 56.81 55.37 54.14 53.32 53.71 53.78 52.95 52.65 53.84
60.37 60.85 60.80 61.56 61.08 60.36 60.14 61.07 61.61 61.94 62.26 62.32 62.15 61.15 58.41 55.53 53.39 50.88 49.82 49.86 50.75 54.60 58.35 58.49 57.99 56.64 54.71 54.21 54.57 54.29 54.18 53.85 54.03
59.42 60.61 60.79 60.91 60.74 60.36 60.34 61.39 61.71 61.78 61.61 61.67 59.99 59.07 55.75 51.13 48.22 47.29 46.13 45.28 45.95 47.01 44.64 46.24 51.86 55.19 56.46 54.42 53.19 52.50 50.26 50.87 51.59
58.86 59.17 57.13 59.16 60.11 60.09 60.25 60.86 60.61 60.09 60.42 61.09 59.71 57.07 54.02 49.50 46.86 44.70 44.73 45.08 44.95 46.06 44.52 43.10 42.88 46.10 49.62 50.15 47.53 45.63 45.26 45.63 46.46
57.27 57.40 56.42 56.23 59.44 60.40 60.58 60.59 60.67 57.64 58.02 58.32 57.36 56.30 54.93 51.61 48.52 45.45 45.09 45.39 46.02 45.92 46.88 44.58 42.64 41.77 42.69 44.72 44.34 44.34 42.73 43.81 45.08

GFSFLT1_sfc_wetblb_162.txt.gz
Wetbulb
61.19 61.76 64.28 64.09 64.09 64.55 65.01 66.32 66.50 68.21 68.07 68.01 68.97 70.22 69.56 69.00 68.93 69.24 69.37 69.13 70.44 70.19 70.21 71.21 71.94 71.75 72.85 72.56 72.93 72.71 72.95 73.40 73.20
59.43 61.35 63.27 64.24 64.63 65.10 65.19 65.47 66.56 67.93 68.13 68.48 68.71 69.65 69.97 69.59 69.63 69.65 69.81 69.76 70.66 71.14 71.04 70.85 71.07 71.89 72.76 72.06 72.91 73.13 73.14 72.80 72.16
60.51 61.44 62.84 63.90 64.62 65.79 65.80 65.92 67.17 68.72 68.74 68.46 68.90 69.38 69.81 69.85 69.70 69.91 70.31 70.18 70.36 69.95 70.22 70.25 71.50 71.40 72.04 71.57 71.47 72.52 74.09 72.95 72.32
58.80 61.70 62.08 63.41 64.85 65.73 67.07 66.85 67.37 67.98 67.99 68.48 68.46 69.27 69.90 69.74 69.41 69.80 70.47 70.36 70.63 71.01 70.29 70.03 70.32 71.15 71.23 70.82 72.51 73.19 73.31 73.05 72.28
61.47 63.03 62.01 63.31 64.76 65.29 66.12 66.69 67.67 67.79 69.85 68.71 68.71 69.72 69.52 69.95 69.95 70.03 69.80 70.29 70.28 70.40 70.45 71.45 70.93 71.19 71.54 70.96 72.48 72.32 72.16 71.96 72.80
61.18 62.33 61.55 62.80 64.79 64.93 65.58 66.61 67.78 68.66 69.47 69.70 69.80 69.77 69.06 69.74 70.29 69.98 69.62 69.83 70.53 70.56 70.55 70.69 71.51 71.34 71.67 71.61 71.59 72.36 72.12 72.15 71.84
61.10 63.02 63.61 63.77 64.39 64.56 65.30 65.99 67.15 68.08 68.14 68.75 69.02 69.31 68.75 68.55 68.87 69.67 70.20 70.63 70.78 70.71 71.13 70.50 71.17 71.49 71.55 71.04 71.69 72.30 71.95 71.81 72.00
61.17 62.71 63.50 64.39 65.51 65.06 64.73 64.71 65.88 67.03 67.31 67.58 68.26 68.30 67.76 67.40 67.08 67.63 68.19 69.27 70.27 70.89 71.07 71.23 71.62 71.26 71.19 70.75 70.24 67.60 67.07 68.55 69.71
59.43 61.74 63.91 64.24 65.42 64.94 64.73 64.64 65.03 66.11 65.89 66.41 67.90 67.49 67.58 66.77 67.38 66.89 66.87 68.19 68.86 69.06 70.05 70.89 70.52 70.25 69.04 66.80 64.71 61.81 63.03 64.94 67.80
58.64 60.49 62.21 63.50 65.02 64.88 65.69 65.51 65.35 65.12 65.17 65.93 66.27 65.83 66.44 67.33 66.28 66.57 66.53 68.62 69.00 68.32 68.10 68.41 67.06 66.52 65.27 63.31 62.28 60.14 60.85 64.94 69.36
60.23 61.55 61.87 63.49 64.27 64.88 65.65 66.80 65.80 66.12 66.27 65.26 65.59 66.00 66.05 66.79 66.79 66.25 65.76 68.12 67.53 67.58 67.87 66.77 65.50 64.53 63.92 62.95 60.17 58.40 59.32 63.76 65.77
61.64 62.76 63.31 64.01 64.60 64.71 65.52 66.18 66.23 65.44 65.14 65.09 65.32 66.30 66.58 66.56 66.38 65.57 65.59 66.34 66.67 65.97 65.93 65.07 63.98 62.89 61.61 61.28 59.39 57.10 58.25 63.04 63.49
63.35 63.13 63.43 63.04 63.77 64.35 64.31 65.68 66.64 65.21 64.26 64.60 65.09 66.00 66.29 66.79 66.38 65.95 65.48 66.18 66.83 65.07 63.24 61.06 60.30 59.15 59.20 58.14 59.42 55.96 57.61 60.99 63.80
62.46 62.73 61.80 62.42 62.10 61.96 62.74 63.94 65.66 65.12 64.44 63.62 64.95 65.45 65.79 66.17 66.54 66.54 66.49 65.27 63.96 61.93 60.16 58.97 57.81 56.92 56.42 55.90 54.92 56.02 54.33 57.26 64.05
61.56 61.33 61.49 61.71 61.11 61.10 62.15 63.67 63.45 62.63 62.11 63.46 64.10 63.89 63.67 63.39 63.78 64.03 63.53 62.36 61.97 61.38 59.49 57.85 56.82 56.08 55.25 54.64 55.08 53.74 53.39 54.27 56.50
61.01 61.05 61.10 61.20 60.83 60.97 61.77 62.47 63.24 61.70 62.42 63.30 62.89 61.89 60.20 59.05 58.43 59.26 62.14 61.48 61.02 60.20 58.89 57.26 56.38 55.80 54.95 54.81 55.43 55.05 52.94 52.81 54.09
60.69 61.00 60.54 61.10 61.00 60.61 60.46 62.13 62.52 62.27 62.80 62.84 60.83 58.04 56.05 55.39 54.23 53.04 53.69 54.96 58.92 59.91 58.82 58.17 57.08 56.41 55.80 55.70 55.53 55.35 55.46 54.96 53.85
60.47 60.73 61.08 61.29 60.88 60.58 60.64 61.81 61.64 62.10 61.77 61.39 58.39 55.98 53.41 51.25 51.02 50.98 48.60 47.14 48.02 49.87 47.31 52.77 59.05 57.94 57.10 56.25 55.01 53.46 49.56 51.13 53.20
58.78 58.93 60.80 60.55 60.69 60.80 60.80 60.86 60.40 60.82 61.39 60.45 57.59 54.38 52.01 49.57 48.53 48.34 49.05 49.19 48.70 45.54 44.53 43.46 43.25 44.74 51.91 51.08 48.54 46.01 44.94 44.94 45.30
57.04 57.90 58.02 60.21 60.12 60.42 60.68 60.32 59.32 59.55 60.08 59.71 58.04 54.77 51.65 49.31 47.95 48.56 48.90 49.49 50.39 49.96 49.26 45.11 43.00 42.17 42.91 45.12 45.45 42.91 42.40 42.40 43.31

GFSFLT1_sfc_wetblb_165.txt.gz
Wetbulb
65.06 65.55 67.04 68.18 67.94 68.46 69.68 69.30 71.23 71.42 72.10 72.43 73.03 73.34 73.82 74.22 74.76 73.57 73.62 74.35 73.81 74.06 74.21 74.62 76.26 75.79 76.18 76.43 76.61 76.96 76.88 78.39 77.05
64.35 65.52 66.45 67.11 68.87 68.16 69.28 68.84 71.00 71.53 72.21 72.88 73.36 73.39 74.05 74.16 74.27 73.99 73.88 74.69 74.70 74.92 75.87 75.36 75.82 75.85 75.96 76.79 76.79 77.02 77.09 78.00 76.70
63.08 64.88 65.64 66.96 68.22 68.51 68.29 68.08 71.08 71.83 72.65 72.80 73.30 73.39 73.77 73.91 74.37 74.83 74.88 75.06 74.49 74.85 75.90 75.79 75.62 75.23 75.71 76.32 76.68 76.40 77.16 76.85 76.62
61.80 63.48 65.94 66.43 67.79 69.09 69.57 69.11 69.95 70.95 71.66 72.34 72.78 73.06 73.72 74.02 74.35 74.52 74.85 74.51 74.76 75.20 75.63 75.20 75.01 75.39 75.01 75.45 75.40 76.21 77.16 76.57 76.13
65.10 66.27 66.93 67.88 67.42 68.66 69.29 69.59 69.88 70.50 71.71 72.03 72.67 73.08 73.83 73.75 74.28 74.47 74.24 74.45 74.93 75.34 75.15 75.56 75.26 75.26 75.16 75.39 75.29 76.09 75.83 74.98 75.34
64.78 65.85 66.26 66.54 67.50 68.10 68.72 69.59 70.39 69.55 70.50 70.77 72.35 72.63 71.46 73.36 73.56 73.70 73.96 74.44 74.99 75.28 74.93 74.80 75.17 75.26 75.25 75.50 75.34 75.50 75.57 75.48 75.07
64.28 65.69 65.98 66.46 67.16 68.15 69.20 69.95 70.92 70.94 70.26 72.26 73.03 72.68 71.88 72.88 73.50 74.01 74.29 74.94 75.16 74.91 75.30 74.85 74.83 75.23 75.24 75.40 75.32 75.14 75.26 75.18 75.48
63.54 64.71 65.70 66.41 67.35 68.05 68.55 69.52 70.42 70.99 70.54 72.27 72.13 72.83 72.39 72.52 73.12 74.06 74.58 74.64 74.85 75.05 75.10 74.90 75.47 75.39 75.31 75.21 75.20 73.05 73.58 73.71 73.43
63.00 63.89 64.06 64.96 66.07 66.88 67.90 68.43 68.93 68.23 68.50 71.35 71.49 69.95 70.16 69.89 71.74 71.86 71.36 73.07 73.99 74.41 74.66 74.95 75.26 74.48 74.49 73.81 70.13 61.67 63.26 67.92 72.93
62.32 63.73 65.18 65.61 65.13 65.82 67.72 68.40 67.29 66.79 69.38 70.57 70.97 69.88 70.52 70.22 69.96 69.89 71.57 72.18 71.91 72.20 73.10 72.81 72.24 71.81 71.83 70.17 68.73 60.90 62.68 66.24 72.82
62.82 64.17 64.97 65.86 65.93 66.35 68.35 68.63 68.35 67.95 66.66 67.65 67.60 68.79 68.61 69.72 68.61 67.91 71.63 70.73 69.82 69.88 70.01 69.36 69.40 69.62 70.10 68.61 64.28 59.40 61.40 67.22 70.52
63.92 64.42 64.00 65.32 66.42 66.64 67.06 68.46 69.10 68.24 67.87 66.50 66.03 66.27 66.63 67.11 67.65 67.13 68.37 68.23 68.80 68.82 67.90 67.47 67.20 67.51 67.60 67.09 64.98 57.25 59.02 65.57 67.81
62.75 63.21 64.09 64.39 64.22 65.24 66.53 66.86 66.07 66.32 65.50 65.57 65.46 67.02 67.92 68.43 67.15 67.31 66.79 67.44 66.65 65.88 64.16 62.19 61.79 61.13 59.95 58.61 61.21 56.25 56.37 63.72 66.75
62.83 62.70 62.47 62.98 63.28 63.08 65.10 66.89 66.08 64.18 65.22 64.64 64.79 65.86 66.20 67.42 67.96 67.29 66.79 66.20 64.36 62.35 60.59 59.26 58.17 57.89 58.61 58.23 57.01 58.49 54.64 57.33 67.24
62.18 61.99 62.24 62.60 63.02 63.49 64.37 65.98 65.92 65.48 63.97 65.58 65.26 63.92 63.33 63.03 63.44 63.78 63.64 62.07 60.93 60.14 59.00 57.81 56.83 56.77 56.49 57.33 56.83 54.70 54.21 54.62 57.17
60.92 61.52 61.21 63.32 62.68 62.14 62.99 65.77 66.28 64.13 63.62 63.46 62.39 61.20 59.54 59.40 60.32 62.63 62.59 61.57 60.16 59.16 59.08 58.37 57.35 58.05 58.26 58.10 58.26 57.13 53.33 53.25 54.31
61.15 61.91 62.20 63.65 63.46 62.48 61.46 62.63 63.43 63.33 63.79 62.79 61.42 58.77 57.95 58.56 58.61 59.19 62.25 62.18 61.07 60.11 59.64 59.22 59.12 59.42 60.02 60.73 60.43 58.68 58.63 57.02 56.47
62.27 62.32 62.14 62.76 62.80 62.56 62.30 63.01 62.61 63.06 62.61 61.79 58.29 57.12 56.48 56.66 57.44 55.60 53.31 50.96 52.75 58.07 54.66 55.32 60.31 59.32 59.70 59.38 58.90 55.17 50.70 53.68 58.26
62.31 61.82 63.03 62.67 62.91 63.50 63.16 62.36 62.33 62.74 62.14 61.49 58.30 55.57 55.97 56.53 56.53 55.46 55.76 56.49 54.57 46.44 45.62 44.41 44.04 46.04 56.03 56.44 49.17 45.11 43.70 42.43 43.90
60.68 63.03 62.77 62.93 63.10 63.12 63.34 62.73 61.89 62.84 61.90 60.77 61.00 59.07 58.06 54.87 55.26 56.88 56.65 56.69 56.52 55.33 51.37 45.57 43.40 42.53 44.21 46.96 47.23 43.14 42.25 43.01 43.73

GFSFLT1_sfc_wetblb_168.txt.gz
Wetbulb
67.92 68.55 69.40 69.73 70.28 70.61 71.19 71.94 72.74 73.09 73.63 74.32 74.56 74.77 75.09 76.31 76.78 75.67 74.29 74.33 74.63 74.36 74.67 74.74 77.18 77.23 77.36 77.93 78.06 77.96 77.10 76.17 75.72
66.73 68.08 69.21 69.68 70.56 70.96 71.30 72.09 72.70 73.47 73.90 75.03 75.17 75.24 75.86 76.28 76.58 76.47 75.22 76.37 76.34 75.29 76.57 75.97 76.75 77.39 77.63 77.97 77.36 77.90 77.12 75.44 75.76
65.65 67.62 68.58 69.99 70.56 71.25 71.45 71.98 72.97 73.98 74.76 75.01 75.46 75.41 75.75 75.93 76.27 76.65 76.65 76.29 76.59 76.22 76.61 76.34 77.02 77.54 77.46 76.63 76.44 77.42 77.29 76.03 76.24
64.83 65.81 67.01 68.99 70.26 71.43 71.96 72.22 72.47 72.82 73.73 74.79 75.35 75.56 75.64 75.90 75.87 76.16 76.51 75.59 76.38 76.18 75.81 76.10 76.21 77.58 77.04 76.99 75.79 76.48 76.58 76.44 75.84
66.62 67.71 68.77 70.33 70.76 70.86 71.52 71.93 71.98 71.45 73.66 74.34 75.13 75.63 75.78 75.40 76.15 76.34 75.62 75.70 75.94 76.89 76.06 76.30 77.23 77.24 76.86 77.05 76.86 77.03 75.88 75.18 75.36
66.62 67.59 68.75 69.76 70.83 71.14 71.00 71.73 72.93 72.45 72.98 73.79 74.72 75.32 75.30 75.14 75.65 75.92 75.60 75.71 76.51 76.50 76.88 77.07 76.84 76.83 76.37 75.44 75.65 76.11 75.70 75.83 75.97
66.61 67.44 68.49 69.59 70.01 70.91 71.52 71.88 71.13 71.98 72.43 74.14 74.07 73.59 74.85 74.87 75.26 75.84 75.62 76.21 76.76 76.50 76.98 76.53 76.46 77.12 75.93 75.50 75.42 75.89 75.94 76.08 75.78
65.56 66.82 68.22 68.95 69.49 70.53 71.51 71.72 72.49 72.83 73.28 72.35 73.53 73.46 73.40 74.62 75.59 76.35 76.58 76.39 76.69 76.51 76.84 76.61 76.71 76.65 76.08 75.84 75.63 75.53 76.31 76.27 75.86
64.57 66.62 67.43 68.47 68.98 69.67 70.40 71.05 71.82 72.37 73.08 72.69 73.60 72.15 72.80 75.70 76.13 76.00 76.27 76.78 77.08 77.01 76.91 76.32 76.45 76.17 75.87 75.34 74.64 63.49 65.04 69.98 75.15
64.74 66.13 67.16 68.50 67.48 67.50 67.88 70.28 70.72 71.19 72.30 73.78 72.34 70.48 72.32 74.30 74.90 73.18 74.18 75.26 74.62 76.04 75.51 75.44 75.54 75.91 75.90 75.62 75.47 62.28 63.38 66.77 74.76
65.46 66.57 66.85 68.56 69.39 69.22 69.94 70.28 70.30 71.29 72.04 71.02 71.91 70.60 72.00 72.32 72.00 71.91 71.48 73.24 73.82 72.91 73.54 73.91 73.83 74.08 74.28 72.99 68.92 60.05 62.01 67.74 74.25
66.75 66.99 66.42 67.38 69.17 69.21 69.65 70.59 71.14 70.49 68.25 67.07 68.50 70.59 70.94 71.37 71.66 71.16 71.43 70.62 70.85 71.09 71.11 70.23 69.78 71.24 71.36 70.34 67.82 58.16 59.95 65.91 72.96
64.67 65.98 67.48 67.78 68.44 68.75 67.62 68.47 69.29 68.45 67.72 67.96 66.48 67.02 68.71 69.35 69.94 68.39 68.73 69.53 69.00 68.30 68.33 65.96 65.35 64.80 65.20 61.34 65.31 57.34 56.99 64.57 70.33
64.18 65.33 65.72 66.77 65.52 65.95 66.77 66.33 65.79 64.83 64.04 63.88 66.48 67.20 66.81 68.28 68.88 69.27 68.55 68.21 66.54 64.41 63.38 61.09 59.85 59.36 60.22 59.73 57.56 60.72 55.65 58.08 68.37
63.21 64.50 65.66 65.87 63.87 64.49 67.09 66.70 64.46 63.95 64.37 65.77 65.31 64.06 63.68 63.58 65.70 66.58 63.85 61.79 60.79 59.87 59.31 58.04 57.54 57.52 57.40 57.38 57.13 54.44 54.12 55.69 58.74
64.75 64.20 65.21 65.12 63.32 63.78 66.08 67.39 65.97 63.72 64.59 65.08 64.68 63.71 60.87 61.43 62.50 62.50 62.52 60.71 59.87 59.57 59.53 58.64 58.16 59.44 58.71 58.14 57.94 56.51 53.57 53.69 55.04
62.39 63.48 62.80 63.82 63.32 63.14 63.74 64.06 66.57 66.26 64.33 63.90 62.28 60.31 59.78 61.29 61.77 61.84 62.34 61.66 61.27 60.19 59.66 59.30 60.06 60.67 60.63 60.85 59.84 59.12 58.79 57.33 56.29
64.07 63.73 62.97 64.36 62.69 62.41 62.64 63.53 64.72 64.93 64.79 63.06 62.49 61.30 61.47 60.82 61.63 60.79 57.26 55.19 58.07 62.60 57.70 55.73 61.22 62.27 62.56 60.42 57.21 54.02 49.46 57.12 63.57
63.42 63.56 63.78 63.45 63.52 63.87 63.66 64.09 63.78 63.95 64.48 63.94 63.75 62.81 62.50 61.60 60.18 60.44 61.25 60.83 58.05 46.90 46.54 45.00 44.53 45.74 56.49 55.85 48.13 45.11 44.23 43.89 45.17
61.53 63.86 64.00 63.72 63.74 64.75 64.37 64.57 65.39 64.70 64.26 64.06 64.16 63.19 63.30 62.39 62.40 62.53 60.70 60.99 60.04 57.72 51.93 46.30 44.73 43.69 44.07 45.47 44.60 43.49 43.38 42.47 44.51

GFSFLT1_sfc_wetblb_171.txt.gz
Wetbulb
67.99 69.33 69.82 69.60 69.94 70.47 71.34 72.06 72.30 72.94 74.15 74.30 74.26 74.64 75.74 77.37 76.78 74.91 74.41 75.75 76.05 71.87 73.11 74.05 78.99 77.41 77.69 77.64 77.85 77.90 77.89 76.54 76.02
67.11 68.26 69.88 70.14 70.88 71.01 71.85 71.79 73.24 73.99 74.88 75.32 75.04 74.75 76.84 76.77 77.28 77.10 75.82 78.49 76.82 75.83 77.57 73.25 77.50 76.90 76.86 77.37 77.97 78.04 78.05 76.10 76.14
66.19 68.50 69.32 70.57 71.38 71.92 72.11 72.57 72.83 73.96 74.92 75.89 75.83 75.53 75.70 75.83 77.68 76.90 76.80 76.31 76.66 76.96 76.42 77.09 75.69 76.78 76.98 76.71 77.36 77.53 78.04 77.42 77.46
64.79 66.08 67.09 68.98 70.88 72.65 72.73 73.07 73.13 74.13 74.35 74.73 75.37 75.54 76.79 77.06 76.52 76.28 76.72 75.61 76.02 76.37 76.97 76.78 76.75 76.94 76.49 76.46 76.74 77.27 77.20 78.18 76.66
65.87 67.91 67.77 69.70 70.73 71.69 72.51 73.36 73.72 74.76 75.64 75.26 75.70 76.59 77.56 75.85 76.55 76.55 75.62 75.78 75.80 76.68 76.77 77.09 76.88 76.82 76.68 77.32 76.23 77.19 76.82 76.25 74.73
66.97 67.74 68.23 69.19 70.67 72.14 72.10 73.06 75.70 74.30 74.47 75.12 75.05 76.74 75.42 75.53 75.90 75.91 75.75 75.83 76.30 76.48 77.31 76.60 76.56 77.15 76.97 76.41 76.46 76.46 76.43 76.43 76.18
66.59 67.13 67.83 69.46 70.63 71.60 73.14 73.38 75.41 75.03 75.27 75.86 75.60 76.88 76.37 77.50 77.28 77.56 76.07 77.48 77.93 76.84 77.99 77.70 77.02 77.88 76.97 76.68 76.43 76.27 76.11 76.71 76.26
65.69 66.40 67.45 69.25 70.18 71.47 72.64 73.50 74.00 74.02 74.19 73.61 77.19 77.03 77.94 77.45 76.62 78.88 78.76 78.54 78.63 78.35 77.98 77.73 77.18 76.85 76.78 76.37 76.11 75.33 77.24 76.11 75.95
64.50 66.13 67.50 69.24 70.30 70.68 71.14 71.89 73.18 73.46 73.38 73.73 73.16 75.10 74.05 77.96 75.80 78.16 78.55 78.55 77.98 77.88 78.27 78.03 78.14 76.29 76.40 76.40 74.66 66.19 67.80 70.84 75.14
64.83 66.30 67.68 68.66 69.80 69.80 71.18 71.92 72.53 73.10 74.12 75.45 73.85 72.34 73.79 74.86 77.07 75.46 76.60 77.64 77.48 77.38 76.87 76.92 76.48 77.00 76.11 75.76 75.92 64.86 65.98 66.37 73.60
65.55 66.69 68.16 69.00 69.96 69.64 70.62 71.58 72.75 73.24 73.48 73.86 73.26 74.17 74.14 74.74 73.77 71.82 74.41 76.00 75.92 76.55 76.61 76.88 77.60 76.26 75.98 76.09 68.02 62.21 63.18 65.70 74.15
67.16 68.65 68.83 69.29 69.29 69.26 70.98 71.47 71.97 71.20 71.69 71.88 71.71 71.95 72.28 72.49 74.28 70.92 72.12 73.76 73.91 74.62 73.59 73.29 73.77 73.81 74.14 73.46 68.25 59.05 60.28 66.66 74.47
67.58 68.51 68.60 68.17 68.20 68.32 68.49 69.28 70.67 69.21 69.21 69.89 68.53 68.23 69.49 70.26 71.79 70.60 72.59 73.10 72.49 71.32 68.94 66.80 65.92 64.71 65.50 63.38 65.98 57.98 58.86 65.08 74.43
66.60 66.99 67.63 68.12 67.87 67.49 68.30 66.90 65.59 64.34 64.45 64.46 66.20 67.84 67.93 68.13 69.31 69.91 71.29 70.74 67.91 65.17 63.52 62.99 60.79 60.36 60.27 61.06 58.72 60.59 57.13 58.48 69.17
65.82 66.77 66.67 67.68 67.29 67.10 67.05 67.74 66.24 64.52 64.23 65.38 65.45 63.90 64.11 64.67 67.73 67.55 66.48 66.04 62.66 62.37 60.61 58.98 57.94 57.78 57.45 57.45 56.53 55.10 54.42 55.26 58.32
65.76 65.95 65.92 66.60 67.08 67.56 68.15 67.54 67.06 64.12 65.14 66.18 64.85 63.95 62.15 62.19 62.21 61.83 61.55 60.81 59.91 59.61 59.54 58.90 59.08 58.92 57.82 57.13 57.15 55.82 53.81 54.56 55.83
64.84 65.39 65.93 65.90 65.12 65.08 66.48 67.18 67.25 64.62 63.77 63.66 63.47 62.64 62.13 62.72 61.45 61.17 61.51 61.21 60.93 59.91 59.56 60.09 59.93 59.88 59.20 58.70 58.82 58.14 57.55 56.79 56.65
63.74 62.57 63.77 63.40 63.17 62.90 63.81 65.62 66.90 66.54 65.72 65.05 61.76 61.60 62.22 62.52 59.78 57.69 54.88 51.84 52.48 58.18 54.68 55.33 61.79 62.60 62.79 61.24 58.27 53.49 50.21 54.00 61.13
62.38 64.09 64.24 63.09 63.69 63.76 64.19 65.97 65.79 66.68 65.92 65.38 64.71 62.55 62.20 61.98 60.93 59.09 58.28 59.29 56.87 47.64 47.17 45.65 45.89 47.68 56.45 56.15 49.14 46.03 45.48 45.83 47.73
63.02 65.31 65.01 64.52 64.62 64.64 64.69 65.05 65.78 66.67 66.31 64.84 65.84 64.34 63.27 63.29 63.08 64.00 63.88 62.72 61.24 58.24 53.64 46.01 44.08 43.77 44.29 46.35 46.96 44.31 44.00 45.26 45.84